User: anonymous   Login
Location: Unspecified
(0.0000°N, 0.0000°E)
Time: 05:46:01
(UTC+00:00)
Language:

STARLINK-4452 - Orbit

View from above orbital plane
View from above orbital plane
View from above satellite
View from above satellite

Ground track
Ground track

The orbit is defined by the following mean orbital elements,

1 53658U          26145.39009264 +.00000000 +00000-0 +49075-3 0 00009
2 53658  97.4470  26.4846 0001943  74.9421 285.2021 15.05618214    07
Epoch (UTC): 25 May 2026 09:21:44
Eccentricity: 0.0001943
inclination: 97.4470°
perigee height: 548 km
apogee height: 551 km
right ascension of ascending node: 26.4846°
argument of perigee: 74.9421°
revolutions per day: 15.05618214
mean anomaly at epoch: 285.2021°

The dashed part of the orbit path shows where the satellite is in the earth's shadow,  

DLR